Printer-friendly version

IAU Minor Planet Center

Minor Planet Center

MPEC 2008-H46 : 2008 GE128

The following Minor Planet Electronic Circular may be linked-to from your own Web pages, but must not otherwise be redistributed electronically.


Read MPEC 2008-H45 Read MPEC 2008-H47


M.P.E.C. 2008-H46                                Issued 2008 Apr. 28, 23:49 UT

     The Minor Planet Electronic Circulars contain information on unusual
         minor planets and routine data on comets.  They are published
   on behalf of Commission 20 of the International Astronomical Union by the
          Minor Planet Center, Smithsonian Astrophysical Observatory,
                          Cambridge, MA 02138, U.S.A.

             Prepared using the Tamkin Foundation Computer Network

                              MPC@CFA.HARVARD.EDU
          URL http://www.cfa.harvard.edu/iau/mpc.html  ISSN 1523-6714

                                  2008 GE128

Observations:
     K08GC8E* C2008 04 14.46120 15 57 25.77 -04 55 58.6          20.4 V EH046G96
     K08GC8E  C2008 04 14.46806 15 57 26.10 -04 56 16.7          21.0 V EH046G96
     K08GC8E  C2008 04 14.47493 15 57 26.46 -04 56 34.1          20.4 V EH046G96
     K08GC8E  C2008 04 14.48178 15 57 26.78 -04 56 52.3          20.5 V EH046G96
     K08GC8E  C2008 04 15.46603 15 59 05.35 -05 36 47.8                 EH046G96
     K08GC8E  C2008 04 15.47166 15 59 05.54 -05 37 00.7          21.0 V EH046G96
     K08GC8E  C2008 04 15.47745 15 59 05.74 -05 37 13.3                 EH046G96
     K08GC8E  C2008 04 15.48323 15 59 05.92 -05 37 25.7                 EH046G96
     K08GC8E  C2008 04 16.37476 16 00 23.95 -06 08 35.4                 EH046G96
     K08GC8E  C2008 04 16.37773 16 00 23.98 -06 08 40.9                 EH046G96
     K08GC8E  C2008 04 16.38075 16 00 24.07 -06 08 46.9          21.3 V EH046G96
     K08GC8E  C2008 04 16.38377 16 00 24.09 -06 08 53.8                 EH046G96

Observer details:
G96 Mt. Lemmon Survey.  Observers E. Beshore, A. Boattini.  Measurers
    E. C. Beshore, A. Boattini, G. J. Garradd, A. R. Gibbs, A. D. Grauer,
    R. E. Hill, R. A. Kowalski, S. M. Larson, R. H. McNaught.  1.5-m reflector
    + CCD.

Orbital elements:
2008 GE128                                               Earth MOID = 0.0042 AU
Epoch 2008 May 14.0 TT = JDT 2454600.5                  MPC
M  24.11841              (2000.0)            P               Q
n   0.40085982     Peri.  347.29873     -0.98477580     -0.17382357
a   1.8216895      Node   182.69226     +0.16199364     -0.91475506
e   0.4630821      Incl.    1.71878     +0.06304504     -0.36470336
P   2.46           H   25.8           G   0.15           U   9
Residuals in seconds of arc
080414 G96  1.2+  0.7-    080415 G96  1.2+  0.4-    080416 G96  1.1+  0.5-
080414 G96  1.2+  0.8-    080415 G96  1.2+  0.8-    080416 G96  0.8+  0.2-
080414 G96  1.5+  0.3-    080415 G96  1.3+  0.6-    080416 G96  1.4+  0.2-
080414 G96  1.1+  0.7-    080415 G96  1.1+  0.3-    080416 G96  0.9+  1.1-

Ephemeris:
2008 GE128               a,e,i = 1.82, 0.46, 2                   q = 0.9781
Date    TT    R. A. (2000) Decl.     Delta      r     Elong.  Phase     V
2008 04 24    16 04.53   -08 48.9    0.0879   1.083   150.9    26.8    21.9
2008 04 25    16 04.58   -09 02.3    0.0923   1.088   151.9    25.8    22.0
2008 04 26    16 04.56   -09 14.6    0.0967   1.093   152.8    24.9    22.1
2008 04 27    16 04.47   -09 26.1    0.101    1.098   153.7    23.9    22.1
2008 04 28    16 04.32   -09 36.7    0.106    1.103   154.7    23.0    22.2
2008 04 29    16 04.11   -09 46.7    0.110    1.108   155.6    22.0    22.3
2008 04 30    16 03.86   -09 56.1    0.115    1.114   156.6    21.1    22.4
2008 05 01    16 03.58   -10 05.0    0.119    1.119   157.6    20.1    22.4
2008 05 02    16 03.25   -10 13.4    0.124    1.124   158.5    19.2    22.5
2008 05 03    16 02.89   -10 21.4    0.129    1.130   159.5    18.2    22.6
2008 05 04    16 02.51   -10 29.1    0.134    1.135   160.4    17.3    22.6
2008 05 05    16 02.10   -10 36.4    0.138    1.141   161.4    16.4    22.7
2008 05 06    16 01.68   -10 43.5    0.143    1.146   162.4    15.5    22.7
2008 05 07    16 01.24   -10 50.4    0.148    1.152   163.3    14.6    22.8
2008 05 08    16 00.79   -10 57.1    0.153    1.158   164.2    13.7    22.8
2008 05 09    16 00.34   -11 03.6    0.158    1.163   165.1    12.9    22.9
2008 05 10    15 59.88   -11 09.9    0.164    1.169   166.0    12.1    22.9
2008 05 11    15 59.43   -11 16.1    0.169    1.175   166.9    11.3    23.0
2008 05 12    15 58.97   -11 22.2    0.174    1.181   167.7    10.5    23.0
2008 05 13    15 58.52   -11 28.2    0.179    1.187   168.5     9.8    23.1
2008 05 14    15 58.07   -11 34.0    0.185    1.193   169.2     9.1    23.1

Timothy B. Spahr             (C) Copyright 2008 MPC           M.P.E.C. 2008-H46

Read MPEC 2008-H45 Read MPEC 2008-H47


Our Web policy. Index to the CBAT/MPC/ICQ pages.


Valid HTML 4.01!